Location: Buckenweiler
(49.0667°N, 10.2500°E)
Time: 13:48:44
(UTC+00:00)

Cosmos 2218 Rocket - Visible Passes

Search period start: 19 April 2026 00:00
Search period end: 29 April 2026 00:00
Orbit: 954 x 1006 km, 82.9° (Epoch: 19 April)

Date Brightness Start Highest point End Pass type
(mag) Time Alt. Az. Time Alt. Az. Time Alt. Az.
19 Apr 5.1 20:08:56 10° SW 20:14:45 44° WNW 20:20:38 10° N visible
20 Apr 4.0 18:49:55 10° S 18:55:56 61° E 19:01:59 10° NNE visible
20 Apr 6.0 20:36:49 10° WSW 20:41:53 26° WNW 20:46:59 10° N visible
21 Apr 4.1 19:16:31 10° SSW 19:22:38 80° W 19:28:51 10° N visible
21 Apr 6.7 21:05:35 10° W 21:09:13 16° WNW 21:12:54 10° NNW visible
22 Apr 5.1 19:43:40 10° SSW 19:49:33 47° WNW 19:55:30 10° N visible
23 Apr 6.0 20:11:27 10° SW 20:16:38 28° WNW 20:21:54 10° N visible
24 Apr 7.5 03:33:28 10° NNE 03:35:41 12° NE 03:37:55 10° ENE visible
24 Apr 4.1 18:51:19 10° S 18:57:28 86° W 19:03:41 10° N visible
24 Apr 6.7 20:40:03 10° W 20:43:58 17° WNW 20:47:55 10° NNW visible
25 Apr 5.0 19:18:24 10° SSW 19:24:20 51° WNW 19:30:22 10° N visible
26 Apr 6.0 19:46:05 10° SW 19:51:25 30° WNW 19:56:49 10° N visible
27 Apr 7.6 03:08:43 10° NE 03:10:25 11° NE 03:12:07 10° ENE visible
27 Apr 6.8 20:14:33 10° WSW 20:18:42 18° WNW 20:22:54 10° NNW visible
28 Apr 7.3 20:44:44 10° WNW 20:46:14 11° NW 20:47:44 10° NW visible
